Time,TemperatureF,DewpointF,PressureIn,WindDirection,WindDirectionDegrees,WindSpeedMPH,WindSpeedGustMPH,Humidity,HourlyPrecipIn,Conditions,Clouds,dailyrainin,SoftwareType,DateUTC
2013-05-27 00:08:00,44.1,39.0,29.86,South,174,4.0,-999.0,81,-99.99,,,0.01,weatherlink.com 1.10,2013-05-27 06:08:00,
2013-05-27 00:23:00,44.2,40.0,29.87,SW,216,4.0,-999.0,84,-99.99,,,0.00,weatherlink.com 1.10,2013-05-27 06:23:00,
2013-05-27 00:38:00,44.5,40.0,29.88,SW,215,4.0,-999.0,84,-99.99,,,0.00,weatherlink.com 1.10,2013-05-27 06:38:00,
2013-05-27 00:53:00,44.6,40.0,29.88,South,182,2.0,-999.0,85,-99.99,,,0.00,weatherlink.com 1.10,2013-05-27 06:53:00,
2013-05-27 01:08:00,45.5,40.0,29.88,SE,133,7.0,-999.0,82,-99.99,,,0.01,weatherlink.com 1.10,2013-05-27 07:08:00,
2013-05-27 01:23:00,45.1,41.0,29.88,ESE,115,4.0,-999.0,84,-99.99,,,0.01,weatherlink.com 1.10,2013-05-27 07:23:00,
2013-05-27 01:38:00,44.9,40.0,29.86,ESE,114,3.0,-999.0,84,-99.99,,,0.01,weatherlink.com 1.10,2013-05-27 07:38:00,
2013-05-27 01:53:00,44.6,40.0,29.86,ESE,115,1.0,-999.0,85,-99.99,,,0.01,weatherlink.com 1.10,2013-05-27 07:53:00,
2013-05-27 02:08:00,44.1,40.0,29.87,WSW,243,4.0,-999.0,85,-99.99,,,0.01,weatherlink.com 1.10,2013-05-27 08:08:00,
2013-05-27 02:23:00,43.5,40.0,29.86,WSW,244,0.0,-999.0,87,-99.99,,,0.01,weatherlink.com 1.10,2013-05-27 08:23:00,
2013-05-27 02:38:00,43.5,40.0,29.88,WSW,244,3.0,-999.0,88,-99.99,,,0.01,weatherlink.com 1.10,2013-05-27 08:38:00,
2013-05-27 02:53:00,44.3,41.0,29.88,SSE,149,2.0,-999.0,87,-99.99,,,0.02,weatherlink.com 1.10,2013-05-27 08:53:00,
2013-05-27 03:08:00,44.3,41.0,29.88,South,169,2.0,-999.0,87,-99.99,,,0.02,weatherlink.com 1.10,2013-05-27 09:08:00,
2013-05-27 03:23:00,44.7,40.0,29.88,SSW,192,4.0,-999.0,84,-99.99,,,0.02,weatherlink.com 1.10,2013-05-27 09:23:00,
2013-05-27 03:38:00,44.9,40.0,29.85,SE,134,2.0,-999.0,83,-99.99,,,0.02,weatherlink.com 1.10,2013-05-27 09:38:00,
2013-05-27 03:53:00,44.9,39.0,29.85,SE,136,1.0,-999.0,80,-99.99,,,0.02,weatherlink.com 1.10,2013-05-27 09:53:00,
2013-05-27 04:08:00,43.8,38.0,29.84,SE,136,0.0,-999.0,79,-99.99,,,0.03,weatherlink.com 1.10,2013-05-27 10:08:00,
2013-05-27 04:23:00,42.7,37.0,29.84,SE,136,0.0,-999.0,81,-99.99,,,0.03,weatherlink.com 1.10,2013-05-27 10:23:00,
2013-05-27 04:38:00,41.8,37.0,29.84,SE,136,1.0,-999.0,82,-99.99,,,0.03,weatherlink.com 1.10,2013-05-27 10:38:00,
2013-05-27 04:53:00,41.2,36.0,29.84,SE,136,0.0,-999.0,83,-99.99,,,0.03,weatherlink.com 1.10,2013-05-27 10:53:00,
2013-05-27 05:08:00,40.2,35.0,29.83,SE,136,1.0,-999.0,82,-99.99,,,0.03,weatherlink.com 1.10,2013-05-27 11:08:00,
2013-05-27 05:23:00,39.7,35.0,29.84,SE,136,1.0,-999.0,82,-99.99,,,0.03,weatherlink.com 1.10,2013-05-27 11:23:00,
2013-05-27 05:38:00,40.4,37.0,29.84,South,184,7.0,-999.0,86,-99.99,,,0.03,weatherlink.com 1.10,2013-05-27 11:38:00,
2013-05-27 05:53:00,41.7,37.0,29.84,South,187,9.0,-999.0,82,-99.99,,,0.03,weatherlink.com 1.10,2013-05-27 11:53:00,
2013-05-27 06:08:00,42.5,37.0,29.84,SSW,204,7.0,-999.0,81,-99.99,,,0.03,weatherlink.com 1.10,2013-05-27 12:08:00,
2013-05-27 06:23:00,42.5,37.0,29.84,SSW,202,7.0,-999.0,80,-99.99,,,0.03,weatherlink.com 1.10,2013-05-27 12:23:00,
2013-05-27 06:38:00,42.0,36.0,29.84,SSW,212,6.0,-999.0,80,-99.99,,,0.03,weatherlink.com 1.10,2013-05-27 12:38:00,
2013-05-27 06:53:00,42.5,36.0,29.85,SW,228,5.0,-999.0,77,-99.99,,,0.03,weatherlink.com 1.10,2013-05-27 12:53:00,
2013-05-27 07:08:00,43.1,36.0,29.85,SSW,196,3.0,-999.0,76,-99.99,,,0.03,weatherlink.com 1.10,2013-05-27 13:08:00,
2013-05-27 07:23:00,43.7,35.0,29.86,SSW,192,4.0,-999.0,72,-99.99,,,0.03,weatherlink.com 1.10,2013-05-27 13:23:00,
2013-05-27 07:38:00,43.3,35.0,29.87,SW,219,6.0,-999.0,73,-99.99,,,0.03,weatherlink.com 1.10,2013-05-27 13:38:00,
2013-05-27 07:53:00,42.8,35.0,29.87,SSW,209,5.0,-999.0,74,-99.99,,,0.03,weatherlink.com 1.10,2013-05-27 13:53:00,
2013-05-27 08:08:00,43.2,35.0,29.87,SSW,200,1.0,-999.0,73,-99.99,,,0.04,weatherlink.com 1.10,2013-05-27 14:08:00,
2013-05-27 08:23:00,44.5,36.0,29.86,SE,138,2.0,-999.0,73,-99.99,,,0.04,weatherlink.com 1.10,2013-05-27 14:23:00,
2013-05-27 08:38:00,46.1,35.0,29.87,South,184,6.0,-999.0,65,-99.99,,,0.04,weatherlink.com 1.10,2013-05-27 14:38:00,
2013-05-27 08:53:00,46.7,35.0,29.87,SW,221,4.0,-999.0,64,-99.99,,,0.04,weatherlink.com 1.10,2013-05-27 14:53:00,
2013-05-27 09:08:00,47.2,35.0,29.87,SW,232,15.0,-999.0,63,-99.99,,,0.04,weatherlink.com 1.10,2013-05-27 15:08:00,
2013-05-27 09:23:00,47.5,36.0,29.87,SSW,206,6.0,-999.0,65,-99.99,,,0.04,weatherlink.com 1.10,2013-05-27 15:23:00,
2013-05-27 09:38:00,48.4,34.0,29.87,SW,215,10.0,-999.0,59,-99.99,,,0.04,weatherlink.com 1.10,2013-05-27 15:38:00,
2013-05-27 09:53:00,49.1,36.0,29.87,SW,228,10.0,-999.0,62,-99.99,,,0.04,weatherlink.com 1.10,2013-05-27 15:53:00,
2013-05-27 10:08:00,49.0,35.0,29.86,SW,218,11.0,-999.0,59,-99.99,,,0.04,weatherlink.com 1.10,2013-05-27 16:08:00,
2013-05-27 10:23:00,47.8,34.0,29.87,WSW,240,4.0,-999.0,60,-99.99,,,0.04,weatherlink.com 1.10,2013-05-27 16:23:00,
2013-05-27 10:38:00,48.9,35.0,29.86,SW,232,1.0,-999.0,59,-99.99,,,0.04,weatherlink.com 1.10,2013-05-27 16:38:00,
2013-05-27 10:53:00,49.8,36.0,29.86,SW,214,6.0,-999.0,59,-99.99,,,0.04,weatherlink.com 1.10,2013-05-27 16:53:00,
2013-05-27 11:08:00,49.6,36.0,29.87,SW,236,5.0,-999.0,59,-99.99,,,0.04,weatherlink.com 1.10,2013-05-27 17:08:00,
2013-05-27 11:23:00,50.6,35.0,29.86,SW,215,10.0,-999.0,56,-99.99,,,0.04,weatherlink.com 1.10,2013-05-27 17:23:00,
2013-05-27 11:38:00,52.0,37.0,29.86,WSW,256,4.0,-999.0,56,-99.99,,,0.04,weatherlink.com 1.10,2013-05-27 17:38:00,
2013-05-27 11:53:00,53.1,36.0,29.86,WSW,250,9.0,-999.0,53,-99.99,,,0.04,weatherlink.com 1.10,2013-05-27 17:53:00,
2013-05-27 12:08:00,53.3,35.0,29.86,SW,229,9.0,-999.0,50,-99.99,,,0.04,weatherlink.com 1.10,2013-05-27 18:08:00,
2013-05-27 12:23:00,53.6,36.0,29.86,SW,236,5.0,-999.0,51,-99.99,,,0.04,weatherlink.com 1.10,2013-05-27 18:23:00,
2013-05-27 12:38:00,55.2,38.0,29.86,WSW,250,5.0,-999.0,52,-99.99,,,0.04,weatherlink.com 1.10,2013-05-27 18:38:00,
2013-05-27 12:53:00,54.1,36.0,29.86,West,268,4.0,-999.0,51,-99.99,,,0.04,weatherlink.com 1.10,2013-05-27 18:53:00,
2013-05-27 13:08:00,54.5,35.0,29.86,WSW,257,9.0,-999.0,49,-99.99,,,0.04,weatherlink.com 1.10,2013-05-27 19:08:00,
2013-05-27 13:23:00,55.2,36.0,29.86,WSW,241,7.0,-999.0,48,-99.99,,,0.04,weatherlink.com 1.10,2013-05-27 19:23:00,
2013-05-27 13:38:00,54.1,36.0,29.85,WSW,252,0.0,-999.0,50,-99.99,,,0.04,weatherlink.com 1.10,2013-05-27 19:38:00,
2013-05-27 13:53:00,55.8,35.0,29.85,SW,229,6.0,-999.0,45,-99.99,,,0.04,weatherlink.com 1.10,2013-05-27 19:53:00,
2013-05-27 14:08:00,56.5,36.0,29.84,South,189,7.0,-999.0,47,-99.99,,,0.04,weatherlink.com 1.10,2013-05-27 20:08:00,
2013-05-27 14:23:00,56.9,36.0,29.84,SW,217,10.0,-999.0,45,-99.99,,,0.04,weatherlink.com 1.10,2013-05-27 20:23:00,
2013-05-27 14:38:00,56.5,36.0,29.84,SW,229,12.0,-999.0,47,-99.99,,,0.04,weatherlink.com 1.10,2013-05-27 20:38:00,
2013-05-27 14:53:00,56.6,38.0,29.84,SW,225,11.0,-999.0,50,-99.99,,,0.04,weatherlink.com 1.10,2013-05-27 20:53:00,
2013-05-27 15:08:00,57.7,38.0,29.84,SW,220,13.0,-999.0,48,-99.99,,,0.04,weatherlink.com 1.10,2013-05-27 21:08:00,
2013-05-27 15:23:00,56.4,36.0,29.84,SW,228,7.0,-999.0,47,-99.99,,,0.04,weatherlink.com 1.10,2013-05-27 21:23:00,
2013-05-27 15:38:00,57.3,35.0,29.83,SW,229,6.0,-999.0,44,-99.99,,,0.04,weatherlink.com 1.10,2013-05-27 21:38:00,
2013-05-27 15:53:00,57.1,38.0,29.82,SW,221,5.0,-999.0,50,-99.99,,,0.04,weatherlink.com 1.10,2013-05-27 21:53:00,
2013-05-27 16:08:00,57.0,36.0,29.82,SW,229,5.0,-999.0,45,-99.99,,,0.04,weatherlink.com 1.10,2013-05-27 22:08:00,
2013-05-27 16:23:00,56.0,35.0,29.82,WSW,246,4.0,-999.0,46,-99.99,,,0.04,weatherlink.com 1.10,2013-05-27 22:23:00,
2013-05-27 16:38:00,56.4,36.0,29.81,SW,227,6.0,-999.0,46,-99.99,,,0.04,weatherlink.com 1.10,2013-05-27 22:38:00,
2013-05-27 16:53:00,57.4,37.0,29.81,SW,235,9.0,-999.0,46,-99.99,,,0.04,weatherlink.com 1.10,2013-05-27 22:53:00,
2013-05-27 17:08:00,57.8,35.0,29.81,WSW,242,9.0,-999.0,42,-99.99,,,0.04,weatherlink.com 1.10,2013-05-27 23:08:00,
2013-05-27 17:23:00,58.2,36.0,29.81,SW,215,3.0,-999.0,43,-99.99,,,0.04,weatherlink.com 1.10,2013-05-27 23:23:00,
2013-05-27 17:38:00,56.4,36.0,29.81,WSW,254,4.0,-999.0,47,-99.99,,,0.04,weatherlink.com 1.10,2013-05-27 23:38:00,
2013-05-27 17:53:00,56.3,36.0,29.81,WNW,286,3.0,-999.0,46,-99.99,,,0.04,weatherlink.com 1.10,2013-05-27 23:53:00,
2013-05-27 18:08:00,57.6,37.0,29.80,WSW,258,8.0,-999.0,47,-99.99,,,0.04,weatherlink.com 1.10,2013-05-28 00:08:00,
2013-05-27 18:23:00,57.5,36.0,29.80,SSW,210,7.0,-999.0,44,-99.99,,,0.04,weatherlink.com 1.10,2013-05-28 00:23:00,
2013-05-27 18:38:00,55.8,34.0,29.80,SW,232,3.0,-999.0,44,-99.99,,,0.04,weatherlink.com 1.10,2013-05-28 00:38:00,
2013-05-27 18:53:00,56.6,36.0,29.79,WSW,240,6.0,-999.0,47,-99.99,,,0.04,weatherlink.com 1.10,2013-05-28 00:53:00,
2013-05-27 19:08:00,56.1,35.0,29.79,WSW,238,5.0,-999.0,45,-99.99,,,0.04,weatherlink.com 1.10,2013-05-28 01:08:00,
2013-05-27 19:23:00,56.3,36.0,29.79,WSW,247,4.0,-999.0,47,-99.99,,,0.04,weatherlink.com 1.10,2013-05-28 01:23:00,
2013-05-27 19:38:00,55.9,37.0,29.79,WSW,245,2.0,-999.0,49,-99.99,,,0.04,weatherlink.com 1.10,2013-05-28 01:38:00,
2013-05-27 19:53:00,55.4,35.0,29.79,WNW,285,1.0,-999.0,47,-99.99,,,0.04,weatherlink.com 1.10,2013-05-28 01:53:00,
2013-05-27 20:08:00,54.2,36.0,29.79,WNW,285,0.0,-999.0,51,-99.99,,,0.04,weatherlink.com 1.10,2013-05-28 02:08:00,
2013-05-27 20:23:00,52.9,36.0,29.79,WNW,286,0.0,-999.0,53,-99.99,,,0.04,weatherlink.com 1.10,2013-05-28 02:23:00,
2013-05-27 20:38:00,51.5,36.0,29.79,WNW,286,0.0,-999.0,56,-99.99,,,0.04,weatherlink.com 1.10,2013-05-28 02:38:00,
2013-05-27 20:53:00,50.7,36.0,29.80,WNW,286,0.0,-999.0,57,-99.99,,,0.04,weatherlink.com 1.10,2013-05-28 02:53:00,
2013-05-27 21:08:00,49.4,36.0,29.80,WNW,286,1.0,-999.0,61,-99.99,,,0.04,weatherlink.com 1.10,2013-05-28 03:08:00,
2013-05-27 21:23:00,48.5,37.0,29.80,WNW,286,0.0,-999.0,64,-99.99,,,0.04,weatherlink.com 1.10,2013-05-28 03:23:00,
2013-05-27 21:38:00,47.5,37.0,29.80,WNW,286,0.0,-999.0,68,-99.99,,,0.04,weatherlink.com 1.10,2013-05-28 03:38:00,
2013-05-27 21:53:00,47.2,37.0,29.81,WNW,286,0.0,-999.0,69,-99.99,,,0.04,weatherlink.com 1.10,2013-05-28 03:53:00,
2013-05-27 22:08:00,46.9,37.0,29.82,WNW,286,0.0,-999.0,68,-99.99,,,0.04,weatherlink.com 1.10,2013-05-28 04:08:00,
2013-05-27 22:23:00,47.2,37.0,29.81,WNW,286,2.0,-999.0,68,-99.99,,,0.04,weatherlink.com 1.10,2013-05-28 04:23:00,
2013-05-27 22:38:00,47.6,38.0,29.82,WNW,286,2.0,-999.0,69,-99.99,,,0.04,weatherlink.com 1.10,2013-05-28 04:38:00,
2013-05-27 22:53:00,47.4,37.0,29.82,WNW,286,0.0,-999.0,67,-99.99,,,0.04,weatherlink.com 1.10,2013-05-28 04:53:00,
2013-05-27 23:08:00,47.8,36.0,29.82,SSW,192,5.0,-999.0,64,-99.99,,,0.04,weatherlink.com 1.10,2013-05-28 05:08:00,
2013-05-27 23:23:00,49.6,33.0,29.83,SSW,202,5.0,-999.0,54,-99.99,,,0.04,weatherlink.com 1.10,2013-05-28 05:23:00,
2013-05-27 23:38:00,48.5,35.0,29.84,SW,219,11.0,-999.0,59,-99.99,,,0.04,weatherlink.com 1.10,2013-05-28 05:38:00,
2013-05-27 23:53:00,46.9,36.0,29.85,South,188,6.0,-999.0,67,-99.99,,,0.04,weatherlink.com 1.10,2013-05-28 05:53:00,